Regional Weather Roundup
Issued by NWS

Home | Current Version | Previous Version | Text Only | Print | Product List | Glossary On
Versions: 1 2 3 4 5 6 7 8 9 10 11 12 13 14 15 16 17 18 19 20 21 22 23 24 25 26 27 28 29 30 31 32 33 34 35 36 37 38 39 40 41 42 43 44 45 46 47 48 49 50
000
ASUS43 KLSX 242257
RWRMO

WEATHER SUMMARY FOR MISSOURI
NATIONAL WEATHER SERVICE SPRINGFIELD MO
600 PM CDT SUN SEP 24 2017

NOTE: "FAIR" INDICATES FEW OR NO CLOUDS BELOW 12,000 FEET WITH NO
       SIGNIFICANT WEATHER AND/OR OBSTRUCTIONS TO VISIBILITY.
       CURRENT SKY AND/OR WEATHER CONDITIONS ARE NOT AVAILABLE FOR
       CHILLICOTHE AND FARMINGTON.

MOZ001>031-035>038-043-044-053-054-250000-
...NORTHERN AND WESTERN MISSOURI...

CITY           SKY/WX    TMP DP  RH WIND       PRES   REMARKS
KANSAS CTY INT MOSUNNY   84  67  56 S7        29.91S
LEE`S SUMMIT   SUNNY     87  65  47 S9        29.92S
ST JOSEPH      SUNNY     87  66  49 S10       29.89S
CHILLICOTHE      N/A     88  66  48 S3        29.92S HX  90

$$
MOZ066>068-077>081-088>096-101>105-250000-
...SOUTHWEST MISSOURI...

CITY           SKY/WX    TMP DP  RH WIND       PRES   REMARKS
SPRINGFIELD    CLOUDY    78  70  76 SE9G22    29.96R
JOPLIN         MOSUNNY   84  68  58 S5        29.91S
BRANSON        PTSUNNY   72  68  88 CALM      29.97F

$$
MOZ032>034-039>042-045>050-055>058-069>072-250000-
...CENTRAL MISSOURI...

CITY           SKY/WX    TMP DP  RH WIND       PRES   REMARKS
COLUMBIA       NOT AVBL
JEFFERSON CITY SUNNY     88  64  44 E5        29.92S
ROLLA          SUNNY     84  67  56 NW3       29.97S
SEDALIA        SUNNY     87  68  52 SE7       29.94F HX  90
WARRENSBURG    SUNNY     86  64  48 SE5       29.92S

$$
MOZ051-052-059>065-250000-
...EAST CENTRAL MISSOURI...

CITY           SKY/WX    TMP DP  RH WIND       PRES   REMARKS
ST LOUIS INTL  PTCLDY    90  62  39 E8        29.96S HX  90

$$
MOZ072>076-082>087-097>100-106>115-250000-
...SOUTH CENTRAL AND SOUTHEAST MISSOURI...

CITY           SKY/WX    TMP DP  RH WIND       PRES   REMARKS
CAPE GIRARDEAU CLOUDY    79  62  56 MISG      29.97R
POPLAR BLUFF   PTSUNNY   82  66  58 E6        29.96S
WEST PLAINS    PTSUNNY   80  62  54 W8        30.01R THUNDER

$$


USA.gov is the U.S. government's official web portal to all federal, state and local government web resources and services.